| time (UTC) | temp F | wind direction | speed MPH | gust MPH | rain 1hr in | rain 24hr in | rain mn in | humidity % | barometer mb |
| 20260507141527 | 55 | 260 | 1.0 | 4.0 | 0.00 | 0.15 | 0.00 | 68 | 1007.9 |
| 20260507140025 | 55 | 246 | 1.0 | 7.0 | 0.00 | 0.15 | 0.00 | 69 | 1008.0 |
| 20260507134520 | 54 | 302 | 0.0 | 6.0 | 0.00 | 0.15 | 0.00 | 68 | 1008.0 |
| 20260507133014 | 55 | 222 | 0.0 | 3.0 | 0.00 | 0.15 | 0.00 | 68 | 1008.0 |
| 20260507131532 | 54 | 177 | 1.0 | 4.0 | 0.00 | 0.15 | 0.00 | 67 | 1008.2 |
| 20260507130030 | 53 | 155 | 0.0 | 8.0 | 0.00 | 0.15 | 0.00 | 72 | 1008.3 |
| 20260507124542 | 52 | 262 | 1.0 | 4.0 | 0.00 | 0.15 | 0.00 | 72 | 1008.2 |
| 20260507123030 | 51 | 180 | 0.0 | 4.0 | 0.00 | 0.15 | 0.00 | 73 | 1008.2 |
| 20260507121528 | 51 | 286 | 0.0 | 3.0 | 0.00 | 0.15 | 0.00 | 79 | 1008.3 |
| 20260507120028 | 49 | 272 | 0.0 | 3.0 | 0.00 | 0.15 | 0.00 | 81 | 1008.6 |
| 20260507114528 | 49 | 140 | 1.0 | 7.0 | 0.00 | 0.15 | 0.00 | 81 | 1008.5 |
| 20260507113027 | 48 | 107 | 0.0 | 4.0 | 0.00 | 0.15 | 0.00 | 83 | 1008.2 |
| 20260507111524 | 47 | 252 | 0.0 | 0.0 | 0.00 | 0.15 | 0.00 | 85 | 1008.3 |
| 20260507110029 | 46 | 80 | 0.0 | 1.0 | 0.00 | 0.15 | 0.00 | 84 | 1008.2 |
| 20260507104528 | 46 | 270 | 0.0 | 2.0 | 0.00 | 0.15 | 0.00 | 85 | 1007.9 |
| 20260507103028 | 46 | 192 | 0.0 | 0.0 | 0.00 | 0.15 | 0.00 | 85 | 1007.8 |
| 20260507101530 | 46 | 259 | 0.0 | 2.0 | 0.00 | 0.15 | 0.00 | 86 | 1007.8 |
| 20260507100027 | 46 | 249 | 0.0 | 3.0 | 0.00 | 0.15 | 0.00 | 86 | 1007.6 |
| 20260507094526 | 46 | 184 | 0.0 | 4.0 | 0.00 | 0.15 | 0.00 | 86 | 1007.9 |
| 20260507093034 | 46 | 156 | 0.0 | 2.0 | 0.00 | 0.15 | 0.00 | 87 | 1008.0 |
| 20260507091536 | 46 | 174 | 0.0 | 3.0 | 0.00 | 0.15 | 0.00 | 88 | 1007.9 |
| 20260507090027 | 46 | 136 | 0.0 | 0.0 | 0.00 | 0.15 | 0.00 | 88 | 1008.3 |
| 20260507084532 | 46 | 152 | 0.0 | 1.0 | 0.00 | 0.15 | 0.00 | 89 | 1008.1 |
| 20260507083020 | 47 | 121 | 0.0 | 1.0 | 0.00 | 0.15 | 0.00 | 90 | 1007.6 |
| 20260507081528 | 47 | 150 | 0.0 | 0.0 | 0.00 | 0.15 | 0.00 | 91 | 1007.6 |
| 20260507080029 | 47 | 132 | 0.0 | 0.0 | 0.00 | 0.15 | 0.00 | 92 | 1007.4 |
| 20260507074528 | 48 | 132 | 0.0 | 0.0 | 0.00 | 0.15 | 0.00 | 90 | 1007.7 |
| 20260507073029 | 48 | 138 | 0.0 | 0.0 | 0.00 | 0.15 | 0.00 | 90 | 1007.6 |
| 20260507071528 | 48 | 131 | 0.0 | 3.0 | 0.00 | 0.15 | 0.00 | 90 | 1007.3 |
| 20260507070022 | 48 | 253 | 0.0 | 2.0 | 0.00 | 0.15 | 0.00 | 90 | 1007.3 |
| 20260507064520 | 48 | 206 | 0.0 | 3.0 | 0.00 | 0.15 | 0.00 | 90 | 1007.1 |
| 20260507063039 | 48 | 61 | 0.0 | 4.0 | 0.00 | 0.15 | 0.00 | 91 | 1007.3 |
| 20260507061533 | 48 | 157 | 0.0 | 2.0 | 0.00 | 0.15 | 0.00 | 92 | 1006.9 |
| 20260507060038 | 49 | 213 | 0.0 | 2.0 | 0.00 | 0.15 | 0.00 | 93 | 1007.2 |
| 20260507054526 | 49 | 213 | 0.0 | 1.0 | 0.00 | 0.15 | 0.00 | 93 | 1007.8 |
| 20260507053026 | 49 | 190 | 0.0 | 0.0 | 0.00 | 0.15 | 0.00 | 93 | 1007.4 |
| 20260507051525 | 49 | 190 | 0.0 | 2.0 | 0.00 | 0.15 | 0.00 | 93 | 1007.7 |
| 20260507050032 | 49 | 171 | 0.0 | 1.0 | 0.00 | 0.15 | 0.00 | 93 | 1007.6 |
| 20260507044530 | 49 | 171 | 0.0 | 1.0 | 0.00 | 0.15 | 0.00 | 92 | 1007.3 |
| 20260507043020 | 50 | 171 | 0.0 | 4.0 | 0.00 | 0.15 | 0.00 | 93 | 1007.4 |
| 20260507041526 | 50 | 227 | 0.0 | 4.0 | 0.00 | 0.15 | 0.00 | 93 | 1007.5 |
| 20260507040025 | 51 | 161 | 0.0 | 2.0 | 0.00 | 0.15 | 0.00 | 93 | 1007.3 |
| 20260507034534 | 52 | 105 | 1.0 | 4.0 | 0.02 | 0.15 | 0.15 | 94 | 1007.0 |
| 20260507033030 | 53 | 275 | 0.0 | 2.0 | 0.02 | 0.15 | 0.15 | 94 | 1006.9 |
| 20260507031529 | 53 | 269 | 0.0 | 4.0 | 0.02 | 0.15 | 0.15 | 94 | 1006.8 |
| 20260507030022 | 54 | 137 | 0.0 | 3.0 | 0.02 | 0.15 | 0.15 | 94 | 1006.4 |
| 20260507024525 | 55 | 215 | 0.0 | 3.0 | 0.00 | 0.13 | 0.13 | 95 | 1006.8 |
| 20260507023026 | 56 | 231 | 0.0 | 4.0 | 0.00 | 0.13 | 0.13 | 95 | 1006.6 |
| 20260507021526 | 57 | 172 | 0.0 | 3.0 | 0.00 | 0.13 | 0.13 | 96 | 1006.1 |
| 20260507020028 | 58 | 316 | 0.0 | 0.0 | 0.00 | 0.13 | 0.13 | 97 | 1006.1 |
| 20260507014525 | 58 | 316 | 0.0 | 0.0 | 0.00 | 0.13 | 0.13 | 97 | 1005.8 |
| 20260507013043 | 58 | 316 | 0.0 | 0.0 | 0.00 | 0.13 | 0.13 | 97 | 1005.8 |
| 20260507011526 | 58 | 316 | 0.0 | 0.0 | 0.00 | 0.13 | 0.13 | 97 | 1005.8 |
| 20260507010034 | 58 | 316 | 0.0 | 0.0 | 0.00 | 0.13 | 0.13 | 97 | 1005.7 |
| 20260507004526 | 58 | 316 | 0.0 | 0.0 | 0.00 | 0.13 | 0.13 | 96 | 1005.7 |
| 20260507003025 | 58 | 316 | 0.0 | 0.0 | 0.00 | 0.13 | 0.13 | 96 | 1005.4 |
| 20260507001530 | 58 | 315 | 0.0 | 0.0 | 0.00 | 0.13 | 0.13 | 96 | 1005.4 |
| 20260507000028 | 58 | 336 | 0.0 | 1.0 | 0.00 | 0.13 | 0.13 | 96 | 1005.3 |
| 20260506234527 | 58 | 336 | 0.0 | 2.0 | 0.00 | 0.13 | 0.13 | 96 | 1005.1 |
| 20260506233036 | 58 | 117 | 0.0 | 1.0 | 0.00 | 0.13 | 0.13 | 96 | 1005.1 |
| 20260506231528 | 58 | 117 | 0.0 | 3.0 | 0.00 | 0.13 | 0.13 | 96 | 1005.1 |
| 20260506230010 | 58 | 280 | 0.0 | 2.0 | 0.00 | 0.13 | 0.13 | 96 | 1005.2 |
| 20260506224523 | 58 | 280 | 0.0 | 2.0 | 0.00 | 0.13 | 0.13 | 96 | 1005.4 |
| 20260506223022 | 58 | 280 | 0.0 | 1.0 | 0.01 | 0.13 | 0.13 | 96 | 1005.3 |
| 20260506221526 | 59 | 280 | 0.0 | 2.0 | 0.02 | 0.13 | 0.13 | 95 | 1005.5 |
| 20260506220028 | 59 | 290 | 0.0 | 2.0 | 0.02 | 0.13 | 0.13 | 95 | 1005.6 |
| 20260506214527 | 59 | 288 | 0.0 | 3.0 | 0.03 | 0.13 | 0.13 | 95 | 1005.5 |
| 20260506213027 | 59 | 302 | 0.0 | 3.0 | 0.02 | 0.12 | 0.12 | 95 | 1005.6 |
| 20260506211527 | 59 | 360 | 0.0 | 3.0 | 0.02 | 0.11 | 0.11 | 95 | 1005.7 |
| 20260506210033 | 59 | 263 | 1.0 | 4.0 | 0.02 | 0.11 | 0.11 | 95 | 1005.7 |
| 20260506204510 | 60 | 327 | 0.0 | 4.0 | 0.02 | 0.10 | 0.10 | 94 | 1005.8 |
| 20260506203023 | 60 | 290 | 0.0 | 2.0 | 0.03 | 0.10 | 0.10 | 94 | 1005.9 |
| 20260506201533 | 61 | 288 | 1.0 | 3.0 | 0.02 | 0.09 | 0.09 | 94 | 1006.0 |
| 20260506200039 | 60 | 298 | 1.0 | 4.0 | 0.02 | 0.09 | 0.09 | 93 | 1006.1 |
| 20260506194528 | 61 | 331 | 0.0 | 2.0 | 0.01 | 0.08 | 0.08 | 94 | 1006.3 |
| 20260506193028 | 61 | 45 | 0.0 | 2.0 | 0.01 | 0.07 | 0.07 | 93 | 1006.4 |
| 20260506191527 | 61 | 46 | 0.0 | 0.0 | 0.02 | 0.07 | 0.07 | 93 | 1006.0 |
| 20260506190023 | 61 | 46 | 0.0 | 1.0 | 0.04 | 0.07 | 0.07 | 93 | 1006.1 |
| 20260506184526 | 61 | 46 | 0.0 | 0.0 | 0.06 | 0.07 | 0.07 | 92 | 1006.5 |
| 20260506183033 | 61 | 46 | 0.0 | 1.0 | 0.06 | 0.06 | 0.06 | 91 | 1007.0 |
| 20260506181526 | 62 | 50 | 0.0 | 2.0 | 0.05 | 0.05 | 0.05 | 89 | 1007.2 |
| 20260506180030 | 64 | 343 | 0.0 | 1.0 | 0.03 | 0.03 | 0.03 | 84 | 1007.4 |
| 20260506174527 | 66 | 338 | 0.0 | 2.0 | 0.01 | 0.01 | 0.01 | 76 | 1007.5 |
| 20260506173023 | 68 | 259 | 0.0 | 3.0 | 0.00 | 0.00 | 0.00 | 71 | 1007.4 |
| 20260506171519 | 69 | 264 | 0.0 | 8.0 | 0.00 | 0.00 | 0.00 | 66 | 1007.1 |
| 20260506170027 | 69 | 227 | 2.0 | 5.0 | 0.00 | 0.00 | 0.00 | 67 | 1007.2 |
| 20260506164525 | 69 | 291 | 0.0 | 3.0 | 0.00 | 0.00 | 0.00 | 69 | 1007.2 |
| 20260506163025 | 69 | 325 | 0.0 | 5.0 | 0.00 | 0.00 | 0.00 | 69 | 1007.4 |
| 20260506161511 | 69 | 290 | 1.0 | 5.0 | 0.00 | 0.00 | 0.00 | 68 | 1007.5 |
| 20260506160021 | 69 | 258 | 1.0 | 3.0 | 0.00 | 0.00 | 0.00 | 70 | 1007.9 |
| 20260506154530 | 68 | 98 | 1.0 | 3.0 | 0.00 | 0.00 | 0.00 | 71 | 1008.3 |
| 20260506153023 | 68 | 283 | 0.0 | 4.0 | 0.00 | 0.00 | 0.00 | 71 | 1008.5 |
| 20260506151528 | 68 | 294 | 0.0 | 4.0 | 0.00 | 0.00 | 0.00 | 70 | 1008.8 |
| 20260506150024 | 68 | 294 | 1.0 | 3.0 | 0.00 | 0.00 | 0.00 | 70 | 1008.8 |
| 20260506144517 | 68 | 242 | 1.0 | 6.0 | 0.00 | 0.00 | 0.00 | 71 | 1008.7 |
| 20260506143034 | 68 | 185 | 1.0 | 6.0 | 0.00 | 0.00 | 0.00 | 71 | 1008.8 |